TimeIST,TemperatureF,Dew PointF,Humidity,Sea Level PressureIn,VisibilityMPH,Wind Direction,Wind SpeedMPH,Gust SpeedMPH,PrecipitationIn,Events,Conditions,WindDirDegrees,DateUTC
12:00 AM,50.0,48.2,94,29.77,6.2,SW,10.4,-,N/A,,Mostly Cloudy,230,2012-10-01 23:00:00
12:30 AM,50.0,48.2,94,29.77,6.2,SW,10.4,-,N/A,,Mostly Cloudy,230,2012-10-01 23:30:00
1:00 AM,50,49,93,29.76,19,SW,13.4,,,,Partly Cloudy,230,2012-10-02 00:00:00
1:00 AM,50.0,48.2,94,29.74,6.2,SW,12.7,-,N/A,,Mostly Cloudy,230,2012-10-02 00:00:00
1:30 AM,50.0,48.2,94,29.74,6.2,SW,13.8,-,N/A,,Mostly Cloudy,220,2012-10-02 00:30:00
2:00 AM,51.8,48.2,88,29.71,6.2,SW,16.1,-,N/A,,Scattered Clouds,220,2012-10-02 01:00:00
2:30 AM,51.8,50.0,94,29.71,6.2,SW,15.0,-,N/A,,Mostly Cloudy,220,2012-10-02 01:30:00
3:00 AM,50.0,48.2,94,29.71,6.2,SW,10.4,-,N/A,,Mostly Cloudy,230,2012-10-02 02:00:00
3:30 AM,50.0,48.2,94,29.71,6.2,SW,10.4,-,N/A,,Scattered Clouds,220,2012-10-02 02:30:00
4:00 AM,50.0,48.2,94,29.68,6.2,SW,15.0,-,N/A,,Scattered Clouds,220,2012-10-02 03:00:00
4:30 AM,48.2,48.2,100,29.68,6.2,SW,12.7,-,N/A,,Scattered Clouds,220,2012-10-02 03:30:00
5:00 AM,50.0,50.0,100,29.68,6.2,SW,11.5,-,N/A,Rain,Light Rain Showers,220,2012-10-02 04:00:00
5:30 AM,51.8,50.0,94,29.65,6.2,SW,15.0,-,N/A,,Mostly Cloudy,220,2012-10-02 04:30:00
6:00 AM,50.0,48.2,94,29.65,6.2,SW,16.1,-,N/A,,Scattered Clouds,220,2012-10-02 05:00:00
7:00 AM,51,50,96,29.66,9,SW,15.7,,,Rain,Heavy Rain Showers,220,2012-10-02 06:00:00
7:00 AM,51.8,50.0,94,29.65,6.2,SW,16.1,-,N/A,Rain,Rain Showers,220,2012-10-02 06:00:00
7:30 AM,51.8,50.0,94,29.65,6.2,SW,12.7,-,N/A,,Mostly Cloudy,230,2012-10-02 06:30:00
8:00 AM,50.0,50.0,100,29.62,6.2,SW,11.5,-,N/A,Rain,Light Rain Showers,230,2012-10-02 07:00:00
8:30 AM,50.0,48.2,94,29.62,6.2,SW,13.8,-,N/A,Rain,Light Rain Showers,220,2012-10-02 07:30:00
9:00 AM,50.0,48.2,94,29.62,6.2,SW,12.7,-,N/A,,Scattered Clouds,220,2012-10-02 08:00:00
9:30 AM,50.0,48.2,94,29.62,6.2,SSW,10.4,-,N/A,,Scattered Clouds,210,2012-10-02 08:30:00
10:00 AM,51.8,50.0,94,29.62,6.2,SW,11.5,-,N/A,,Partly Cloudy,220,2012-10-02 09:00:00
10:30 AM,53.6,50.0,88,29.62,6.2,SW,13.8,-,N/A,,Partly Cloudy,220,2012-10-02 09:30:00
11:00 AM,53.6,50.0,88,29.62,6.2,SW,16.1,-,N/A,,Scattered Clouds,220,2012-10-02 10:00:00
11:30 AM,53.6,50.0,88,29.59,6.2,SW,16.1,-,N/A,,Mostly Cloudy,230,2012-10-02 10:30:00
12:00 PM,55.4,50.0,82,29.59,6.2,SW,15.0,-,N/A,,Mostly Cloudy,220,2012-10-02 11:00:00
12:30 PM,55.4,51.8,88,29.56,6.2,SSW,16.1,-,N/A,,Mostly Cloudy,210,2012-10-02 11:30:00
1:00 PM,55,52,85,29.57,19,SSW,15.7,,,,Partly Cloudy,210,2012-10-02 12:00:00
1:00 PM,55.4,51.8,88,29.56,6.2,SSW,16.1,-,N/A,,Mostly Cloudy,210,2012-10-02 12:00:00
1:30 PM,55.4,51.8,88,29.53,6.2,SSW,19.6,-,N/A,Rain,Light Rain Showers,210,2012-10-02 12:30:00
2:00 PM,53.6,51.8,94,29.53,6.2,SW,18.4,-,N/A,,Scattered Clouds,230,2012-10-02 13:00:00
2:30 PM,53.6,51.8,94,29.50,6.2,SW,21.9,-,N/A,Rain,Light Rain Showers,230,2012-10-02 13:30:00
3:00 PM,53.6,51.8,94,29.53,6.2,WSW,17.3,-,N/A,,Partly Cloudy,240,2012-10-02 14:00:00
3:30 PM,55.4,50.0,82,29.50,5.6,WSW,24.2,38.0,N/A,,Scattered Clouds,240,2012-10-02 14:30:00
4:00 PM,51.8,48.2,88,29.53,6.2,WSW,19.6,-,N/A,,Scattered Clouds,250,2012-10-02 15:00:00
4:30 PM,51.8,46.4,82,29.53,6.2,WSW,17.3,-,N/A,,Scattered Clouds,240,2012-10-02 15:30:00
5:00 PM,53.6,48.2,82,29.53,6.2,WSW,16.1,-,N/A,,Partly Cloudy,240,2012-10-02 16:00:00
5:30 PM,53.6,44.6,72,29.53,6.2,West,17.3,-,N/A,,Scattered Clouds,260,2012-10-02 16:30:00
6:00 PM,51.8,44.6,76,29.53,6.2,WSW,19.6,31.1,N/A,,Scattered Clouds,250,2012-10-02 17:00:00
6:30 PM,51.8,44.6,76,29.53,6.2,WSW,17.3,-,N/A,,Partly Cloudy,250,2012-10-02 17:30:00
7:00 PM,50,44,74,29.58,28,WSW,15.7,,,,Partly Cloudy,250,2012-10-02 18:00:00
7:00 PM,50.0,44.6,82,29.56,6.2,WSW,15.0,-,N/A,,Partly Cloudy,250,2012-10-02 18:00:00
7:30 PM,48.2,44.6,87,29.56,6.2,WSW,12.7,-,N/A,,Partly Cloudy,250,2012-10-02 18:30:00
8:00 PM,48.2,42.8,82,29.59,6.2,WSW,12.7,-,N/A,,Partly Cloudy,250,2012-10-02 19:00:00
8:30 PM,46.4,42.8,87,29.59,6.2,WSW,11.5,-,N/A,,Partly Cloudy,250,2012-10-02 19:30:00
9:00 PM,46.4,42.8,87,29.59,6.2,WSW,10.4,-,N/A,,Partly Cloudy,240,2012-10-02 20:00:00
9:30 PM,46.4,42.8,87,29.59,6.2,WSW,11.5,-,N/A,,Partly Cloudy,240,2012-10-02 20:30:00
10:00 PM,46.4,41.0,81,29.62,6.2,WSW,11.5,-,N/A,,Partly Cloudy,250,2012-10-02 21:00:00
10:30 PM,46.4,41.0,81,29.62,6.2,WSW,11.5,-,N/A,,Partly Cloudy,250,2012-10-02 21:30:00
11:00 PM,46.4,41.0,81,29.62,6.2,WSW,12.7,-,N/A,,Partly Cloudy,250,2012-10-02 22:00:00
11:30 PM,44.6,41.0,87,29.62,6.2,WSW,8.1,-,N/A,,Partly Cloudy,250,2012-10-02 22:30:00